| time (UTC) | temp F | wind direction | speed MPH | gust MPH | rain 1hr in | rain 24hr in | rain mn in | humidity % | barometer mb |
| 20260504034536 | 61 | 204 | 0.0 | 2.0 | 0.00 | 0.00 | 0.00 | 65 | 1012.5 |
| 20260504033048 | 62 | 87 | 0.0 | 1.0 | 0.00 | 0.00 | 0.00 | 64 | 1012.3 |
| 20260504031536 | 62 | 111 | 0.0 | 1.0 | 0.00 | 0.00 | 0.00 | 63 | 1012.2 |
| 20260504030034 | 63 | 160 | 0.0 | 4.0 | 0.00 | 0.00 | 0.00 | 61 | 1012.0 |
| 20260504024543 | 64 | 239 | 0.0 | 3.0 | 0.00 | 0.00 | 0.00 | 59 | 1011.8 |
| 20260504023033 | 65 | 142 | 0.0 | 1.0 | 0.00 | 0.00 | 0.00 | 58 | 1011.7 |
| 20260504021534 | 65 | 96 | 0.0 | 7.0 | 0.00 | 0.00 | 0.00 | 59 | 1011.5 |
| 20260504020032 | 65 | 219 | 0.0 | 2.0 | 0.00 | 0.00 | 0.00 | 58 | 1011.4 |
| 20260504014532 | 67 | 143 | 0.0 | 3.0 | 0.00 | 0.00 | 0.00 | 57 | 1011.3 |
| 20260504013031 | 68 | 89 | 0.0 | 6.0 | 0.00 | 0.00 | 0.00 | 56 | 1011.2 |
| 20260504011530 | 68 | 127 | 0.0 | 2.0 | 0.00 | 0.00 | 0.00 | 56 | 1011.1 |
| 20260504010030 | 68 | 82 | 0.0 | 4.0 | 0.00 | 0.00 | 0.00 | 56 | 1011.1 |
| 20260504004540 | 68 | 100 | 0.0 | 3.0 | 0.00 | 0.00 | 0.00 | 55 | 1011.1 |
| 20260504003029 | 69 | 129 | 0.0 | 4.0 | 0.00 | 0.00 | 0.00 | 54 | 1011.1 |
| 20260504001528 | 69 | 224 | 0.0 | 0.0 | 0.00 | 0.00 | 0.00 | 56 | 1010.9 |
| 20260504000025 | 68 | 198 | 0.0 | 2.0 | 0.00 | 0.00 | 0.00 | 58 | 1011.1 |
| 20260503234524 | 67 | 168 | 0.0 | 1.0 | 0.00 | 0.00 | 0.00 | 59 | 1011.3 |
| 20260503233029 | 68 | 92 | 0.0 | 0.0 | 0.00 | 0.00 | 0.00 | 58 | 1011.5 |
| 20260503231521 | 67 | 127 | 0.0 | 2.0 | 0.00 | 0.00 | 0.00 | 59 | 1011.7 |
| 20260503230020 | 66 | 139 | 0.0 | 1.0 | 0.00 | 0.00 | 0.00 | 59 | 1011.7 |
| 20260503224520 | 66 | 158 | 0.0 | 7.0 | 0.00 | 0.00 | 0.00 | 61 | 1011.5 |
| 20260503223020 | 65 | 167 | 0.0 | 6.0 | 0.00 | 0.00 | 0.00 | 61 | 1011.6 |
| 20260503221519 | 66 | 141 | 1.0 | 7.0 | 0.00 | 0.00 | 0.00 | 60 | 1011.7 |
| 20260503220019 | 67 | 142 | 0.0 | 7.0 | 0.00 | 0.00 | 0.00 | 59 | 1011.5 |
| 20260503214517 | 66 | 190 | 0.0 | 7.0 | 0.00 | 0.00 | 0.00 | 60 | 1011.7 |
| 20260503213027 | 66 | 148 | 0.0 | 3.0 | 0.00 | 0.00 | 0.00 | 59 | 1011.8 |
| 20260503211518 | 66 | 216 | 0.0 | 7.0 | 0.00 | 0.00 | 0.00 | 59 | 1011.8 |
| 20260503210017 | 66 | 153 | 0.0 | 5.0 | 0.00 | 0.00 | 0.00 | 59 | 1011.8 |
| 20260503204514 | 67 | 63 | 0.0 | 3.0 | 0.00 | 0.00 | 0.00 | 59 | 1012.0 |
| 20260503203014 | 67 | 200 | 1.0 | 6.0 | 0.00 | 0.00 | 0.00 | 58 | 1012.0 |
| 20260503201511 | 65 | 96 | 0.0 | 9.0 | 0.00 | 0.00 | 0.00 | 60 | 1012.1 |
| 20260503200009 | 64 | 115 | 0.0 | 5.0 | 0.00 | 0.00 | 0.00 | 62 | 1012.2 |
| 20260503194507 | 64 | 150 | 0.0 | 3.0 | 0.00 | 0.00 | 0.00 | 62 | 1012.3 |
| 20260503193020 | 63 | 98 | 0.0 | 10.0 | 0.00 | 0.00 | 0.00 | 64 | 1012.4 |
| 20260503191505 | 64 | 142 | 1.0 | 6.0 | 0.00 | 0.00 | 0.00 | 61 | 1012.3 |
| 20260503190003 | 63 | 128 | 0.0 | 7.0 | 0.00 | 0.00 | 0.00 | 64 | 1012.6 |
| 20260503184502 | 62 | 157 | 0.0 | 13.0 | 0.00 | 0.00 | 0.00 | 66 | 1012.6 |
| 20260503183100 | 61 | 129 | 3.0 | 10.0 | 0.00 | 0.00 | 0.00 | 67 | 1012.7 |
| 20260503181601 | 61 | 118 | 3.0 | 10.0 | 0.00 | 0.00 | 0.00 | 68 | 1012.6 |
| 20260503180053 | 59 | 136 | 1.0 | 10.0 | 0.00 | 0.00 | 0.00 | 70 | 1012.3 |
| 20260503174605 | 59 | 121 | 0.0 | 11.0 | 0.00 | 0.00 | 0.00 | 74 | 1012.6 |
| 20260503173050 | 57 | 153 | 2.0 | 9.0 | 0.00 | 0.00 | 0.00 | 74 | 1012.6 |
| 20260503171545 | 58 | 135 | 1.0 | 6.0 | 0.00 | 0.00 | 0.00 | 74 | 1012.4 |
| 20260503081550 | 54 | 130 | 0.0 | 0.0 | 0.00 | 0.00 | 0.00 | 81 | 1010.2 |
| 20260503071543 | 55 | 127 | 0.0 | 1.0 | 0.00 | 0.00 | 0.00 | 80 | 1010.6 |
| 20260503054536 | 57 | 153 | 0.0 | 0.0 | 0.00 | 0.00 | 0.00 | 74 | 1010.9 |
| 20260503053034 | 58 | 135 | 0.0 | 0.0 | 0.00 | 0.00 | 0.00 | 73 | 1010.8 |
| 20260503051532 | 59 | 114 | 0.0 | 2.0 | 0.00 | 0.00 | 0.00 | 72 | 1010.8 |
| 20260503050031 | 59 | 159 | 0.0 | 2.0 | 0.00 | 0.00 | 0.00 | 72 | 1010.8 |
| 20260503044539 | 60 | 122 | 0.0 | 1.0 | 0.00 | 0.00 | 0.00 | 72 | 1010.7 |
| 20260503043031 | 61 | 72 | 0.0 | 1.0 | 0.00 | 0.00 | 0.00 | 71 | 1010.4 |
| 20260503041530 | 61 | 101 | 0.0 | 5.0 | 0.00 | 0.00 | 0.00 | 70 | 1010.3 |
| 20260503040029 | 62 | 93 | 0.0 | 2.0 | 0.00 | 0.00 | 0.00 | 69 | 1010.2 |